This is the latest recevied weather packets stored in our database for station/object N4BBA. If no packets are shown the sender has not sent any weather packets the latest 10 day(s).
| Time | Temp. | Humidity | Pressure | Rain* | Wind** | Luminosity | Snow |
|---|---|---|---|---|---|---|---|
| 1777855556 | 10.56° C | 73% | 1015.9 hPa | 0 mm | - | 0 W/m² | - |
| 1777855253 | 10.56° C | 71% | 1016 hPa | 0 mm | - | 0 W/m² | - |
| 1777854949 | 11.11° C | 70% | 1015.9 hPa | 0 mm | - | 0 W/m² | - |
| 1777854646 | 11.11° C | 69% | 1016.1 hPa | 0 mm | - | 0 W/m² | - |
| 1777854343 | 11.67° C | 67% | 1015.8 hPa | 0 mm | - | 0 W/m² | - |
| 1777854041 | 11.67° C | 65% | 1015.9 hPa | 0 mm | - | 0 W/m² | - |
| 1777853738 | 12.22° C | 64% | 1015.8 hPa | 0 mm | - | 0 W/m² | - |
| 1777853434 | 12.22° C | 62% | 1015.6 hPa | 0 mm | - | 1 W/m² | - |
| 1777853131 | 12.78° C | 60% | 1015.9 hPa | 0 mm | - | 2 W/m² | - |
| 1777852829 | 13.33° C | 58% | 1015.4 hPa | 0 mm | - | 4 W/m² | - |
| 1777852527 | 13.89° C | 57% | 1015.6 hPa | 0 mm | - | 7 W/m² | - |
| 1777852223 | 13.89° C | 54% | 1015.5 hPa | 0 mm | - | 10 W/m² | - |
| 1777851921 | 14.44° C | 52% | 1015.4 hPa | 0 mm | - | 14 W/m² | - |
| 1777851619 | 14.44° C | 50% | 1015.5 hPa | 0 mm | - | 17 W/m² | - |
| 1777851315 | 15° C | 49% | 1015.3 hPa | 0 mm | - | 21 W/m² | - |
| 1777851011 | 15.56° C | 48% | 1015.6 hPa | 0 mm | - | 24 W/m² | - |
| 1777850708 | 16.11° C | 47% | 1015.3 hPa | 0 mm | - | 27 W/m² | - |
| 1777850406 | 16.67° C | 44% | 1015.4 hPa | 0 mm | - | 30 W/m² | - |
| 1777850104 | 16.67° C | 45% | 1015.6 hPa | 0 mm | - | 32 W/m² | - |
| 1777849800 | 17.78° C | 44% | 1015.5 hPa | 0 mm | - | 37 W/m² | - |
| 1777849497 | 18.89° C | 37% | 1015.4 hPa | 0 mm | - | 72 W/m² | - |
| 1777849194 | 18.89° C | 35% | 1015.4 hPa | 0 mm | - | 84 W/m² | - |
| 1777848891 | 19.44° C | 36% | 1015.4 hPa | 0 mm | - | 95 W/m² | - |
| 1777848586 | 18.89° C | 39% | 1015.2 hPa | 0 mm | - | 108 W/m² | - |
| 1777848284 | 19.44° C | 35% | 1015.3 hPa | 0 mm | - | 120 W/m² | - |
* Rain latest hour (hover to see other rain measurements)
** Current wind speed in m/s (hover to see current wind gust speed)